Regional Weather Roundup
Issued by NWS

Current Version | Previous Version | Text Only | Print | Product List | Glossary On
Versions: 1 2 3 4 5 6 7 8 9 10 11 12 13 14 15 16 17 18 19 20 21 22 23 24 25 26 27 28 29 30 31 32 33 34 35 36 37 38 39 40 41 42 43 44 45 46 47 48 49 50
000
ASHW40 PHFO 230432
RWRHI

WEATHER ROUNDUP FOR HAWAII
NATIONAL WEATHER SERVICE HONOLULU HI
600 PM HST THU JUN 22 2017

THIS IS AN AUTOMATED REPORT THAT HAS NOT BEEN QUALITY CONTROLLED.

NOTE..."FAIR" INDICATES FEW OR NO CLOUDS BELOW 12,000 FEET WITH NO
SIGNIFICANT WEATHER AND/OR OBSTRUCTIONS TO VISIBILITY.

* - THESE SITES REPORT LIMITED FIELDS

HIZ001>004-230500-
KAUAI-NIIHAU-

CITY           SKY/WX    TMP DP  RH WIND       PRES   REMARKS
LIHUE APT      MOSUNNY   81  70  69 NE14      29.96S
PORT ALLEN*      N/A     84 N/A N/A NE22G28     N/A
POIPU*           N/A     84 N/A N/A NE7G13      N/A
PRINCEVILLE*     N/A     81 N/A N/A E8G15       N/A
KOKOLE POINT*  NOT AVBL
MOLOAA DAIRY*    N/A     81  70  69 E3G12       N/A
WAIMEA HTS*    NOT AVBL
PUU OPAE*      NOT AVBL
PUU LUA*       NOT AVBL
MAKAHA RIDGE*    N/A     77  66  69 W2G9        N/A
$$

HIZ005>011-230500-
OAHU-

CITY           SKY/WX    TMP DP  RH WIND       PRES   REMARKS
HONOLULU       PTSUNNY   82  65  56 NE15      29.93R
KALAELOA       MOSUNNY   85  63  47 NE8G18    29.94R
KANEOHE MCB    PTSUNNY   81  71  71 NE9       29.92
WHEELER FIELD  CLOUDY    78  66  65 E8        29.95R
BELLOWS*         N/A    N/A N/A N/A NE16        N/A
KAHUKU*          N/A    N/A N/A N/A NE7G18      N/A
WHEELER*       NOT AVBL
WAIANAE HARBOR NOT AVBL
DILLINGHAM*      N/A     84  66  54 SW7G16      N/A
KAHUKU TRN*      N/A     86  73  66 W7G18       N/A  HX  93
KAWAILOA*        N/A     75  64  69 E10G18      N/A
KII*             N/A     81  70  69 E13G18      N/A
MAKUA RANGE*     N/A     90  70  51 W12G22      N/A  HX  95
OAHU FOREST NW NOT AVBL
SCHOFIELD BRK*   N/A     81  66  61 MISG        N/A
SCHOFIELD S*   NOT AVBL
WAIANAE VLY*   NOT AVBL
KUAOKALA*      NOT AVBL
HONOULIUULI*   NOT AVBL
MOKUOLOE IS*   NOT AVBL
PALEHUA*       NOT AVBL
WAIAWA PHB*    NOT AVBL
$$

HIZ012>013-230500-
MOLOKAI-

CITY           SKY/WX    TMP DP  RH WIND       PRES   REMARKS
MOLOKAI AIRPT  MOSUNNY   81  69  67 NE14G22   29.95R
KALAUPAPA      NOT AVBL
MAKAPULAPAI*     N/A     81  68  65 E13G20      N/A
MOLOKAI 1*     NOT AVBL
PUU ALII*        N/A     61  61  99 N2G10       N/A
$$

HIZ016-230500-
KAHOOLAWE-

CITY           SKY/WX    TMP DP  RH WIND       PRES   REMARKS
KAHOOLAWE*     NOT AVBL
HAKIOAWA*        N/A     74  68  82 MISG      30.36R
HONOKANAIA*      N/A     81  69  66 NE14G26   29.86R
KANELOA*         N/A     72  68  88 E10G24    29.99
KEALIALALO*    NOT AVBL
LUA MAKIKA*    NOT AVBL
$$

HIZ014>015-230500-
LANAI-

CITY           SKY/WX    TMP DP  RH WIND       PRES   REMARKS
LANAI CITY     FAIR      75  65  70 NE20G28   29.97R
LANAI 1*       NOT AVBL
$$

HIZ017>028-230500-
MAUI-

CITY           SKY/WX    TMP DP  RH WIND       PRES   REMARKS
KAHULUI        MOSUNNY   82  66  58 NE17G24   29.92R
KAPALUA-W MAUI MOSUNNY   81  64  57 NE17      29.94S
HANA AIRPORT   PTSUNNY   79  68  69 E5        29.98R
HANA*            N/A     81 N/A N/A NE8         N/A
HALEAKALA SUMM   N/A     50   0  12 NE24        N/A
MAALAEA BAY*     N/A     81 N/A N/A VRB21G30    N/A
HALEAKALA*     NOT AVBL
KAUPO GAP*     NOT AVBL
KULA 1*          N/A     57  57  99 NW3         N/A
$$

HIZ023>026-230500-
BIG ISLAND OF HAWAII COAST AND LOWER SLOPES-

CITY           SKY/WX    TMP DP  RH WIND       PRES   REMARKS
KAILUA KONA    PTSUNNY   79  71  76 SE6       29.89R
HILO           PTSUNNY   79  69  71 N6        29.93R
HONOKAA*         N/A     73 N/A N/A VRB1        N/A
KAWAIHAE MWT*    N/A     84 N/A N/A W9          N/A
KAWAIHAE*        N/A     81 N/A N/A W7        29.90R
SOUTH POINT*     N/A     73 N/A N/A N10G16      N/A
UPOLU AIRPORT* NOT AVBL
KAMUELA*       PTCLDY    70  63  78 NE12      30.03R
HAKALAU*         N/A     55  54  97 E3          N/A
KALOKO-HONOKO*   N/A     77  72  83 NE3       29.89S
PALI 2*          N/A     72  59  64 SW17G25     N/A
KEALAKOMO*       N/A     84  63  48 N18G26      N/A
KAUPULEHU*     NOT AVBL
KAPAPALA*        N/A     70  69  96 SW3G10      N/A
LOWER KAHUKU*    N/A     64  64 100 SE1G7       N/A
PUHE CS*         N/A     82  66  57 SW3         N/A
PUHO CS*         N/A     81  68  64 W3          N/A
PTA KEAMUKU*   NOT AVBL
WAIKOLOA*      NOT AVBL
$$

HIZ027>028-230500-
BIG ISLAND OF HAWAII INTERIOR AND SUMMMITS-

CITY           SKY/WX    TMP DP  RH WIND       PRES   REMARKS
BRADSHAW FIELD LGT RAIN  57  57 100 W5        30.24R VSB 1
MK VISITOR CEN   N/A     50  46  87 W3          N/A
MAUNA KEA*       N/A     50  -8   9 SW1         N/A
MAUNA LOA*       N/A     52  36  54 MISG        N/A
MAUNA LOA 1*   NOT AVBL
PTA KIPUKA*      N/A     70  70 100 NW5G13      N/A
PTA RANGE 17*    N/A     70  68  94 W7          N/A
PTA WEST*        N/A     63  59  88 NW8G14      N/A
NENE CABIN*      N/A     55  55 100 E3          N/A
AHUMOA*        NOT AVBL
PTA PORTABLE*  NOT AVBL
PUU MALI*        N/A     54  54 100 NE13G23     N/A
$$

HIC003-230500-
NORTHWEST ISLANDS-

CITY           SKY/WX    TMP DP  RH WIND       PRES   REMARKS
MIDWAY ISLAND  MOSUNNY   81  66  61 E15       30.10S
MIDWAY NOS*      N/A     77 N/A N/A MISG      30.08F
FRENCH FRIGATE NOT AVBL
$$

PHZ110>124-180-230500-
BUOY REPORTS

STATION/POSITION TIME  TEMP    WIND        PRES    WAVE   SWELL
                       AIR SEA DIR/SP/G            HT/PER HT/DIR
                 (UTC) (F)     (DEG/KT/KT) (MB)    (FT/S) (FT/D)
BUOY 51001       0410   79 81   70/ 12/ 14 1015.4
BUOY 51101       0350   79 80   60/ 10/ 14 1015.7S   5/14   5/150
BUOY 51100       NOT AVBL
BUOY 51002       0410   78 79   70/ 10/ 12 1011.9
BUOY 51003       0350   79 81   70/  8/ 12 1012.4S   5/14   5/130
BUOY 51004       0350      80  100/  8/ 10 1012.3R   5/15   5/140
BARBERS PT BUOY  NOT AVBL
WAIMEA BAY BUOY  0402      79                N/A     3/ 8
KAILUA BAY BUOY  0404      80                N/A     5/ 8   2/140
LANAI BUOY       NOT AVBL
BARBERS PT 2     NOT AVBL
PAUWELA MAUI     0409      79                N/A     5/ 8   2/ 50
HILO             0357      79                N/A     5/14   3/120
KANEOHE BAY BUOY 0355      80                N/A     4/ 8
HANALEI KAUAI    0352      80                N/A     4/ 8   2/ 20
KAHULUI HARBOR   0400   79 80   40/ 12/ 16 1013.6
HONOLULU HARBOR  0400   80 81   CALM  /  6 1014.3
KILO NALU        NOT AVBL
HILO HARBOR      0400   78 79   20/  8/ 10 1013.4
MOKUOLOE         0336   80 83   70/ 12/ 16 1014.0R
NAWILIWILI       0400   78      50/  9/ 13 1014.2
WHOTS BUOY       NOT AVBL
BUOY 51028       NOT AVBL
$$

......................KEY........................................
  SKY/WX - SKY CONDITIONS/PRESENT WEATHER
  TMP    - TEMPERATURE IN FAHRENHEIT
  DWPT   - DEWPOINT IN FAHRENHEIT
  RH     - RELATIVE HUMIDITY IN PERCENT
  WIND   - DIRECTION AND SPEED /MPH FOR ISLANDS...KTS FOR BUOYS/
  PRES   - MEAN SEA LEVEL PRESSURE IN INCHES OF HG
  VSB    - VISIBILITY IN MILES
  HX     - HEAT INDEX
  WCI    - WIND CHILL INDEX
  VRB    - VARIABLE WIND DIRECTION
  N/A    - NOT AVAILABLE



USA.gov is the U.S. government's official web portal to all federal, state and local government web resources and services.